Regional Weather Roundup
Issued by NWS State College, PA

Home | Current Version | Previous Version | Text Only | Print | Product List | Glossary Off
Versions: 1 2 3 4 5 6 7 8 9 10 11 12 13 14 15 16 17 18 19 20 21 22 23 24 25 26 27 28 29 30 31 32 33 34 35 36 37 38 39 40 41 42 43 44 45 46 47 48 49 50

000
ASUS41 KCTP 220210
RWRCTP
PHLRWRCTP ALL

REGIONAL WEATHER ROUNDUP
NATIONAL WEATHER SERVICE STATE COLLEGE PA
1000 PM EDT THU SEP 21 2017

Note: "fair" indicates few or no clouds below 12,000 feet with no
significant weather and/or obstructions to visibility.

* = STATION THAT DOES NOT REPORT PRECIPITATION /E.G. RAIN...SNOW...ETC/
    THUNDER OR FOG.

PAZ002>004-007>009-013>016-020>023-029>032-220300-
WESTERN PENNSYLVANIA

CITY           SKY/WX    TMP DP  RH WIND       PRES   REMARKS
ERIE           CLEAR     67  57  70 CALM      30.11S
MEADVILLE      CLEAR     71  60  68 NE3       30.15R
FRANKLIN*      CLEAR     67  61  81 CALM      30.15R
NEW CASTLE     FAIR      69  64  84 E3        30.13R
BEAVER COUNTY  NOT AVBL
BUTLER*        CLEAR     64  63  96 NE3       30.13R
PITTSBURGH INT PTCLDY    75  62  64 CALM      30.11R
PITTSBURGH     CLEAR     76  57  51 CALM      30.11R
INDIANA*       CLEAR     66  63  88 CALM      30.15R
LATROBE        CLEAR     64  64 100 CALM      30.12R
WASHINGTON CO* CLEAR     66  63  88 CALM      30.12R
$$

PAZ004>006-010>012-017>019-024>028-033>037-041-042-045-046-049>053-220300-
CENTRAL PENNSYLVANIA

CITY           SKY/WX    TMP DP  RH WIND       PRES   REMARKS
BRADFORD       CLOUDY    60  59  96 N3        30.17R
DUBOIS         CLOUDY    69  57  65 N7        30.14R
CLEARFIELD     CLOUDY    65  56  72 N3        30.14R
JOHNSTOWN      CLEAR     69  58  67 CALM      30.16R
ALTOONA        CLEAR     62  59  90 CALM      30.13R
STATE COLLEGE  NOT AVBL
WILLIAMSPORT   CLOUDY    68  65  90 CALM      30.07R
SELINSGROVE    PTCLDY    65  64  97 CALM      30.07R
FT INDIANTOWN  PTCLDY    68  65  92 CALM      30.05S
CAPITAL CITY   CLOUDY    71  64  78 SW3       30.05R
HARRISBURG     CLOUDY    73  66  78 W3        30.04R
YORK           CLOUDY    64  64 100 CALM      30.05S
$$

PAZ038>040-043-044-047-048-054-055-060>062-067>071-220300-
EASTERN PENNSYLVANIA

CITY           SKY/WX    TMP DP  RH WIND       PRES   REMARKS
SCRANTON       PTCLDY    69  62  78 E5        30.09R
MOUNT POCONO   PTCLDY    62  58  86 N5        30.12R
ALLENTOWN      MOCLDY    72  63  73 CALM      30.04R
QUAKERTOWN*    PTCLDY    68  66  94 CALM      30.05R
READING        CLOUDY    72  65  78 NW3       30.04R
LANCASTER      PTCLDY    72  66  81 NW6       30.04S
COATESVILLE    PTCLDY    73  63  68 N5        30.06S
POTTSTOWN      PTCLDY    70  65  84 NE5       30.05S
BLUE BELL      PTCLDY    64  63  94 CALM      30.05R
DOYLESTOWN     PTCLDY    69  63  81 CALM      30.04R
WILLOW GROVE   NOT AVBL
NORTH PHILA    CLOUDY    75  63  66 CALM      30.04R
PHILADELPHIA   MOCLDY    75  63  66 CALM      30.03R
$$




USA.gov is the U.S. government's official web portal to all federal, state and local government web resources and services.